Location: ???????
(55.6400°N, 37.8500°E)
Time: 14:41:50
(UTC+00:00)

Daily predictions for brighter satellites

Satellite Brightness Start Highest point End
(mag) Time Altitude Azimuth Time Altitude Azimuth Time Altitude Azimuth
SL-16 R/B 4.3 18:44:40 10° NNW 18:49:01 22° NNE 18:53:22 10° ENE
Okean O Rocket 4.2 18:46:32 10° SW 18:49:20 16° W 18:52:08 10° NW
Cosmos 1656 3.8 18:44:06 10° NW 18:49:34 75° WSW 18:55:03 10° SSE
Cosmos 1833 Rocket 4.0 18:45:55 10° SSE 18:50:05 22° ESE 18:54:16 10° NE
Terra 2.3 18:47:16 10° S 18:51:55 61° WSW 18:56:37 10° NNW
Cosmos 1805 3.2 18:49:57 10° NNW 18:53:42 85° WSW 18:57:25 10° S
H-2A R/B 4.3 18:51:22 10° ESE 18:54:37 22° NE 18:57:55 10° N
Cosmos 1743 Rocket 4.3 18:51:25 10° NNW 18:55:45 53° W 19:00:04 10° S
Cosmos 1766 4.0 18:53:00 10° N 18:56:34 38° ENE 19:00:06 10° SE
Cosmos 1603 4.1 18:54:41 10° SW 19:00:23 72° NW 19:06:10 10° NNE
Cosmos 2360 4.3 19:01:20 10° NW 19:07:05 85° WSW 19:12:50 10° SSE
Okean 1 4.3 19:04:07 10° SSW 19:07:52 47° WNW 19:11:41 10° N
Landsat 5 3.5 19:06:43 10° NNE 19:10:25 50° E 19:14:10 10° S
Cosmos 1470 3.9 19:07:34 10° N 19:10:50 28° ENE 19:14:05 10° SE
Cosmos 1151 Rocket 3.1 19:08:48 10° SSW 19:13:08 85° WNW 19:17:30 10° N
Cosmos 1975 3.0 19:10:19 10° NNW 19:14:15 69° W 19:18:09 10° S
USA 281 3.3 19:07:42 10° SSE 19:14:18 79° WSW 19:20:57 10° NNW
NOSS 3-3 (A) 4.1 19:12:30 10° SSW 19:17:49 47° SE 19:24:01 10° NE
MOS 1 Rocket 4.3 19:16:12 10° S 19:21:22 52° W 19:26:40 10° NNW
Cosmos 1092 Rocket 4.1 19:18:27 10° S 19:24:42 72° E 19:31:03 10° NNE
Cosmos 220 Rocket 4.0 19:23:23 10° SSW 19:27:43 89° NNW 19:32:02 10° NNE
Cosmos 1908 4.4 19:24:36 10° N 19:27:47 29° ENE 19:30:53 10° SE
ARIANE 5 R/B 2.9 19:25:29 11° SE 19:29:34 55° ENE 19:33:48 10° N
NOSS 3-4 (A) 3.8 19:24:20 10° NW 19:30:56 82° SW 19:38:37 10° SE
NOSS 3-4 (C) 3.8 19:24:26 10° NW 19:31:02 82° SW 19:38:43 10° SE
Cosmos 2195 Rocket 4.5 19:24:57 10° S 19:31:04 89° ESE 19:37:15 10° NNE
Cosmos 1328 Rocket 3.5 19:28:36 10° S 19:32:54 70° E 19:37:12 10° NNE
CZ-2C R/B 4.5 19:29:41 10° NNE 19:33:49 35° E 19:37:29 12° SSE
Cosmos 1140 Rocket 4.3 19:34:28 11° SSE 19:39:00 35° ESE 19:43:42 10° NE
MetOp-A 4.5 19:36:23 10° S 19:41:06 54° W 19:46:09 10° NNW
OPS 6432 4.4 19:38:57 10° NW 19:42:14 72° NE 19:45:17 10° ESE
Cosmos 1515 Rocket 4.0 19:40:01 12° SSE 19:43:45 46° E 19:47:54 10° NNE
Cosmos 2322 Rocket 4.1 19:39:36 10° NNW 19:44:20 26° NNE 19:49:04 10° E
Cosmos 1697 Rocket 2.8 19:38:45 10° NW 19:44:22 69° WSW 19:49:25 13° SSE
Cosmos 1626 1.9 19:45:28 10° SSW 19:48:41 72° WNW 19:51:55 10° N
Cosmos 1470 Rocket 3.8 19:46:08 10° NNW 19:50:35 70° W 19:54:36 12° S
NOSS 3-3 (C) 3.9 19:45:48 10° SSW 19:51:20 66° SE 19:57:59 10° NE
Cosmos 1869 Rocket 4.2 19:47:55 10° N 19:52:10 47° ENE 19:55:52 13° SE
Cosmos 1633 Rocket 3.9 19:49:16 10° NNW 19:53:30 45° W 19:57:40 10° SSW
Cosmos 1707 3.4 19:51:54 15° SSE 19:54:31 35° E 19:57:51 10° NNE
Cosmos 1980 Rocket 2.3 19:48:51 10° NNW 19:54:36 82° NE 19:59:53 12° SE
Cosmos 1300 4.5 19:52:48 10° NNE 19:55:32 20° ENE 19:58:17 10° ESE
USA 234 3.4 19:51:01 10° E 19:57:35 80° N 20:04:08 10° W
Cosmos 2333 Rocket 4.2 19:54:39 10° NNW 19:59:25 26° NNE 20:04:12 10° E
Cosmos 1441 Rocket 3.6 19:57:04 10° N 20:00:33 48° ENE 20:03:19 15° SE
Cosmos 44 Rocket 4.2 19:59:01 10° WNW 20:03:31 36° WSW 20:07:10 14° S
Lacrosse 5 rocket 1.4 20:01:32 10° WNW 20:05:43 59° SSW 20:09:28 12° SE
Cosmos 540 Rocket 3.9 20:01:02 10° NNW 20:06:09 58° ENE 20:10:59 11° SE
Cosmos 1763 Rocket 3.6 20:02:54 10° NNW 20:08:15 75° ENE 20:12:54 14° SE
Cosmos 468 Rocket 4.4 20:05:28 10° NNW 20:10:43 59° NE 20:15:39 11° SE
Cosmos 1066 Rocket 4.4 20:05:32 10° SSW 20:11:23 86° WNW 20:17:19 10° NNE
Meteor 2-12 Rocket 4.5 20:06:05 11° S 20:12:05 82° E 20:18:17 10° NNE
Meteor 2-4 Rocket 4.5 20:06:51 10° SSW 20:12:40 56° WNW 20:18:31 10° N
Cosmos 1842 3.1 20:10:07 15° S 20:13:03 71° E 20:16:44 10° NNE
Cosmos 2026 Rocket 4.5 20:06:59 10° SSW 20:13:10 60° WNW 20:19:19 10° N
Cosmos 1674 2.4 20:11:20 15° S 20:14:11 82° E 20:17:41 10° NNE
Cosmos 1933 Rocket 3.7 20:11:09 10° NNW 20:15:32 73° W 20:19:05 15° S
GP-B 4.4 20:16:28 10° NNE 20:20:22 30° E 20:23:40 13° SE
Cosmos 407 Rocket 3.9 20:16:11 14° S 20:20:31 49° ESE 20:25:33 10° NE
MINOTAUR 4 R/B 3.5 20:18:27 10° NNE 20:21:26 84° ESE 20:23:36 17° SSW
Cosmos 2369 3.7 20:16:16 10° NW 20:22:01 86° WSW 20:26:58 14° SSE
Cosmos 1818 3.8 20:16:35 10° SW 20:22:04 76° NW 20:27:36 10° NE
Cosmos 1607 4.1 20:16:53 10° SSW 20:23:14 62° SE 20:29:39 10° NE
KORONAS-FOTON 3.7 20:20:40 15° S 20:23:36 83° E 20:27:20 10° NNE
ATLAS 2AS CENTAUR R/B 3.7 20:20:46 10° WNW 20:27:38 50° NNE 20:34:11 10° E
H-2A R/B 2.7 20:25:54 17° S 20:29:10 69° WSW 20:33:29 10° NNW
Terra 4.4 20:29:25 10° W 20:30:32 11° W 20:31:38 10° WNW
Cosmos 2219 Rocket 4.3 20:27:49 10° NNW 20:32:31 26° NNE 20:37:13 10° E
SAR-Lupe-3 4.5 20:30:08 19° SSE 20:32:34 83° WSW 20:36:07 10° NNW
Cosmos 1833 Rocket 2.7 20:27:42 10° SSW 20:33:20 88° WNW 20:39:00 10° NE
RESURS DK-1 4.5 20:30:02 10° NNW 20:33:25 24° NE 20:36:48 10° E
SL-16 R/B 2.9 20:28:51 10° NNW 20:34:25 52° NE 20:39:58 10° ESE
COSMOS 2406 4.1 20:33:19 16° SSE 20:37:13 34° ESE 20:42:22 10° NE
ALOS 2 2.6 20:34:53 17° SSE 20:38:15 85° ENE 20:42:40 10° NNW
Meteor 1-12 Rocket 4.4 20:33:00 10° NNW 20:38:58 78° ENE 20:43:55 16° SSE
S3M 4.2 20:32:47 10° NNW 20:39:12 76° W 20:44:31 15° S
Cosmos 1758 3.4 20:40:15 10° N 20:44:05 64° ENE 20:46:48 18° SSE
Cosmos 1470 3.9 20:42:54 10° NNW 20:46:15 32° W 20:48:57 14° SSW
Cosmos 2082 Rocket 2.7 20:42:09 16° S 20:46:25 45° ESE 20:51:50 10° NE
Cosmos 2360 Rocket 3.5 20:41:15 10° NNW 20:46:37 40° NE 20:51:56 10° ESE
Cosmos 2251 Rocket 3.5 20:44:25 14° SSW 20:48:58 71° ESE 20:54:16 10° NNE
Meteor 2-10 Rocket 3.8 20:47:23 10° NNW 20:53:15 89° WSW 20:57:48 17° SSE
Cosmos 1707 Rocket 4.3 20:51:02 17° SSE 20:54:04 42° E 20:58:17 10° NNE
GEOS 3 Rocket 3.6 20:49:07 10° NE 20:54:21 81° SE 20:59:30 10° SW
SL-08 ROCKET BODY 4.5 20:50:51 15° S 20:56:08 87° E 21:02:20 10° NNE
Cosmos 724 4.2 20:53:18 10° SW 20:59:12 82° SE 21:05:03 10° NE
Cosmos 2315 Rocket 4.1 20:53:18 10° NNW 20:59:37 77° W 21:04:44 17° S
Cosmos 1908 4.4 20:59:29 10° NNW 21:02:39 30° W 21:05:04 15° SSW
Meteor 1-13 Rocket 4.4 20:57:59 14° SSW 21:03:11 82° WNW 21:09:03 10° NNE
ARIANE 5 R/B 4.3 21:02:57 11° SW 21:06:17 23° W 21:09:47 10° NW
Okean 3 4.4 21:05:01 17° SSE 21:07:41 36° E 21:11:29 10° NNE
NOSS 3-3 (A) 4.5 21:02:44 10° WSW 21:08:33 64° NNW 21:15:29 10° NE
Cosmos 2237 4.3 21:03:27 10° NW 21:09:14 86° NE 21:14:36 12° SE
H-2A R/B 2.9 21:05:49 10° NNE 21:10:01 40° E 21:12:54 18° SSE
Cosmos 2285 Rocket 4.2 21:04:20 10° SSW 21:10:40 78° WNW 21:17:06 10° NNE
Meteor 1-4 Rocket 4.4 21:10:32 11° ESE 21:12:02 15° E 21:13:48 10° NE
BREEZE-M DEB (TANK) 4.3 21:15:44 10° SW 21:18:57 40° SSE 21:27:47 10° E
Cosmos 1908 Rocket 4.3 21:15:13 10° N 21:19:31 47° ENE 21:23:12 13° SE
Cosmos 2278 3.7 21:14:34 10° NW 21:20:19 76° WSW 21:25:10 15° SSE
Cosmos 1140 Rocket 4.2 21:15:31 10° SW 21:20:37 52° NW 21:25:44 10° NNE
Cosmos 1346 Rocket 2.7 21:17:28 10° NNW 21:21:22 83° W 21:23:58 20° S
SL-24 R/B 4.5 21:18:26 10° NNE 21:23:09 76° ESE 21:27:08 17° S
Cosmos 1733 Rocket 3.2 21:18:51 10° NNW 21:23:11 66° W 21:26:12 19° S
Cosmos 2266 Rocket 4.4 21:17:38 12° SSW 21:23:19 61° WNW 21:29:38 10° N
Cosmos 2322 Rocket 2.4 21:23:37 10° NNW 21:29:19 74° NE 21:34:59 10° SE
Cosmos 1707 4.4 21:26:30 10° SW 21:29:36 26° WNW 21:32:43 10° N
Helios 1A Rocket 4.3 21:26:39 10° SE 21:30:03 31° ENE 21:33:27 10° N
Cosmos 1300 3.1 21:27:05 10° NNW 21:30:31 45° W 21:32:38 20° SSW
Cosmos 1400 Rocket 2.8 21:27:50 19° SSW 21:30:40 77° WNW 21:34:38 10° NNE
Cosmos 841 Rocket 3.5 21:26:37 10° NNW 21:31:52 74° WSW 21:36:04 16° SSE
BREEZE-M DEB (TANK) 1.7 21:28:33 10° WSW 21:32:23 47° S 21:34:25 10° E
Meteor 1-21 4.3 21:28:43 17° S 21:33:09 75° E 21:38:57 10° NNE
Cosmos 1980 Rocket 3.6 21:33:31 10° NW 21:38:02 25° WSW 21:41:37 14° SSW
USA 234 3.2 21:34:06 10° ESE 21:40:42 80° SSW 21:47:17 10° WNW
Orbus 7S? 2.5 21:37:18 10° WSW 21:40:45 79° SSE 21:43:28 10° ENE
Lacrosse 5 rocket 2.9 21:40:35 10° W 21:43:23 18° SW 21:44:16 17° SSW
Okean 1-7 3.4 21:41:35 18° SSE 21:44:36 54° E 21:48:51 10° NNE
Cosmos 2333 Rocket 2.5 21:38:56 10° NNW 21:44:41 72° NE 21:50:25 10° SE
Cosmos 2228 Rocket 3.4 21:41:50 17° SSW 21:45:16 65° WNW 21:49:48 10° N
Cosmos 1655 Rocket 4.5 21:41:21 13° SSW 21:47:00 59° WNW 21:53:21 10° N
Cosmos 1242 Rocket 4.4 21:47:51 10° SE 21:49:34 15° E 21:51:19 10° NE
Cosmos 1356 Rocket 3.4 21:51:21 18° SSW 21:54:18 76° WNW 21:58:30 10° NNE
Cosmos 1953 2.2 21:50:23 10° NNW 21:54:18 84° W 21:57:01 19° S
GP-B 3.9 21:53:31 10° N 21:57:41 41° W 22:00:59 15° SW
SL-27 R/B 4.4 21:56:27 10° SE 21:57:47 13° E 21:59:10 10° ENE
Genesis I 4.1 21:59:24 19° S 22:01:04 29° SE 22:04:11 10° ENE
SL-14 R/B 4.1 22:01:00 15° SW 22:03:55 41° WNW 22:07:33 10° N
Cosmos 1703 Rocket 3.9 22:01:24 17° S 22:04:42 58° E 22:09:07 10° NNE
Cosmos 1300 Rocket 4.0 22:01:47 10° N 22:06:04 58° ENE 22:10:02 12° SSE
Aureole 3 3.3 22:04:37 19° SW 22:06:35 52° WNW 22:09:58 10° N
Cosmos 1455 2.0 22:03:43 10° NNW 22:07:11 69° W 22:09:28 20° S
Cosmos 1862 Rocket 4.0 22:05:04 16° SSW 22:08:24 53° WNW 22:12:42 10° N
Cosmos 676 Rocket 4.2 22:04:33 14° SW 22:09:11 76° WNW 22:14:34 10° NNE
Cosmos 1954 Rocket 4.3 22:05:17 12° SW 22:10:10 65° WNW 22:15:28 10° NNE
RESURS DK-1 2.2 22:07:31 10° NW 22:11:37 78° SW 22:15:33 11° SSE
SJ 16-02 2.7 22:08:51 13° SSE 22:11:57 28° ESE 22:15:40 10° NE
Cosmos 1814 Rocket 4.0 22:08:53 10° NNW 22:14:08 86° WSW 22:19:26 10° SSE
Cosmos 2219 Rocket 2.5 22:11:43 10° NNW 22:17:24 73° NE 22:23:05 10° SE
SL-16 R/B 2.8 22:13:10 10° NW 22:18:28 41° WSW 22:22:42 15° S
ATLAS 2AS CENTAUR R/B 2.7 22:12:07 10° NW 22:19:06 84° SW 22:25:47 10° SE
COSMOS 2406 3.7 22:15:33 10° SW 22:21:17 62° NW 22:27:01 10° NNE
Cosmos 2322 4.4 22:21:46 10° NNW 22:27:27 58° NE 22:33:03 10° SE
Cosmos 2082 Rocket 3.0 22:24:59 10° WSW 22:30:31 49° NW 22:36:06 10° NNE
Cosmos 2360 Rocket 2.3 22:25:19 10° NW 22:30:55 60° WSW 22:36:29 10° SSE
Cosmos 2333 4.2 22:27:24 10° NW 22:33:08 75° WSW 22:38:53 10° SSE
Cosmos 839 Rocket 4.2 22:27:03 10° NW 22:34:33 68° SW 22:40:49 10° SSE
Cosmos 2242 Rocket 4.3 22:30:58 12° SSE 22:34:52 48° E 22:39:14 10° NNE
Cosmos 1745 Rocket 4.1 22:30:04 15° S 22:35:29 89° E 22:41:52 10° NNE
Cosmos 405 Rocket 4.4 22:33:43 10° N 22:36:57 29° ENE 22:40:12 10° SE
SL-16 R/B 4.0 22:32:07 10° ESE 22:37:46 37° NE 22:43:26 10° N
CZ-2C R/B 3.5 22:35:09 10° SE 22:40:07 49° ENE 22:45:11 10° N
Okean 2 3.9 22:38:45 15° SW 22:41:50 48° WNW 22:45:44 10° N
Meteor 1-4 Rocket 2.9 22:42:38 16° SW 22:44:40 40° WNW 22:47:32 10° N
USA 267 3.6 22:38:50 10° ENE 22:45:09 48° SE 22:51:04 12° SW
H-2A R/B 3.3 22:41:40 10° N 22:45:40 34° WNW 22:49:37 10° SW
Nadezhda 1 Rocket 4.5 22:42:33 10° NNW 22:48:43 51° W 22:54:10 13° SSW
Cosmos 2237 Rocket 3.8 22:45:29 10° NNW 22:50:49 39° NE 22:56:08 10° ESE
Cosmos 1315 Rocket 3.3 22:49:16 15° SW 22:52:25 51° WNW 22:56:19 10° N
Cosmos 1570 Rocket 4.1 22:47:08 10° NNW 22:52:30 89° ENE 22:57:51 10° SSE
COSMOS 2428 3.1 22:48:13 10° NNW 22:53:54 70° NE 22:59:35 10° SE
Cosmos 1782 Rocket 4.1 22:53:26 10° NNW 22:57:36 43° W 23:01:04 14° SSW
Cosmos 968 Rocket 3.5 22:56:50 13° SSW 23:01:21 89° ESE 23:06:34 10° NNE
Kosmos-1783 4.5 22:57:49 10° WNW 23:01:23 56° SW 23:08:43 10° SE
H-2A R/B 4.4 22:58:22 10° NNE 23:02:08 38° E 23:05:51 10° SSE
Helios 1A Rocket 3.6 23:01:28 14° SSW 23:04:21 35° W 23:07:54 10° NNW
Cosmos 2208 Rocket 4.1 22:59:23 10° NNW 23:04:43 86° ENE 23:09:56 10° SSE
SL-4 R/B 3.2 23:02:20 14° SSW 23:05:15 28° SSE 23:09:02 10° E
Cosmos 2098 Rocket 3.9 23:00:44 10° NNW 23:06:18 86° W 23:12:42 10° S
Cosmos 1892 4.5 23:06:08 10° SE 23:08:56 23° E 23:11:47 10° NE
EXPRESS MD2 4.0 23:10:58 15° SSW 23:12:33 24° SSE 23:15:43 10° ESE
Cosmos 2322 Rocket 3.3 23:08:13 10° NW 23:12:53 27° WSW 23:17:16 11° SSW
MOZ.5/SAFIR/RUBIN 5/SL-8 4.0 23:10:18 10° S 23:14:54 53° W 23:19:31 10° NNW
Resurs 1-4 Rocket 2.9 23:09:57 10° NNE 23:15:03 47° E 23:20:06 10° S
Cosmos 1850 Rocket 4.4 23:10:20 10° SW 23:15:29 58° NW 23:20:40 10° NNE
Cosmos 1408 2.2 23:15:08 14° SSW 23:17:35 64° WNW 23:20:34 10° N
Meteor 1-24 Rocket 4.1 23:14:04 10° S 23:20:02 72° E 23:25:55 10° NNE
Cosmos 1242 Rocket 2.9 23:19:14 13° SW 23:21:33 36° WNW 23:24:14 10° N
CZ-2D R/B 2.8 23:17:32 10° NNE 23:22:53 52° E 23:28:09 10° S
USA 234 3.7 23:18:12 10° SSE 23:24:17 40° SW 23:30:24 10° WNW
Cosmos 2297 Rocket 4.4 23:23:09 10° SE 23:26:40 17° E 23:30:13 10° ENE
OPS 8737 4.3 23:24:00 10° WNW 23:26:51 46° SW 23:29:46 10° SSE
Cosmos 2333 Rocket 3.2 23:23:43 10° NW 23:28:33 29° WSW 23:33:23 10° SSW
CRYOSAT 2 4.5 23:24:22 10° N 23:29:18 82° E 23:34:12 10° S
SL-27 R/B 2.5 23:27:58 12° SW 23:30:28 47° WNW 23:33:13 10° NNE
Cosmos 1703 3.2 23:29:18 11° SSW 23:32:55 74° WNW 23:36:40 10° N
Cosmos 1709 Rocket 4.4 23:30:47 10° SSW 23:37:01 55° WNW 23:43:19 10° N
IDEFIX/ARIANE 42P 2.7 23:31:49 10° NNE 23:37:08 83° ESE 23:42:24 10° SSW
Genesis I 3.6 23:33:45 10° WSW 23:37:13 52° NW 23:40:45 10° NE
NOSS 5 (C) 4.1 23:36:58 10° NW 23:40:16 83° SW 23:43:24 10° SE
ADEOS II 2.8 23:39:01 10° NNE 23:44:10 52° E 23:49:17 10° S
RESURS DK-1 4.3 23:46:49 10° WNW 23:48:38 13° WSW 23:50:27 10° SW
CZ-4C R/B 4.3 23:47:47 10° SE 23:49:34 12° ESE 23:51:28 10° E
SJ 16-02 1.9 23:45:57 10° SW 23:50:07 47° WNW 23:54:20 10° NNE
Cosmos 1825 2.4 23:49:21 10° S 23:52:42 57° E 23:56:06 10° NNE
Cosmos 2181 Rocket 4.4 23:46:52 10° NNW 23:52:57 49° W 23:58:53 10° SSW
Cosmos 1674 Rocket 3.6 23:51:05 10° S 23:55:31 86° E 23:59:57 10° NNE
